Regional Weather Roundup
Issued by NWS

Home | Current Version | Previous Version | Graphics & Text | Print | Product List | Glossary On
Versions: 1 2 3 4 5 6 7 8 9 10 11 12 13 14 15 16 17 18 19 20 21 22 23 24 25 26 27 28 29 30 31 32 33 34 35 36 37 38 39 40 41 42 43 44 45 46 47 48 49 50
000
ASUS45 KCYS 281910
RWRWY

WYOMING REGIONAL WEATHER ROUNDUP
NATIONAL WEATHER SERVICE CHEYENNE WY
1200 PM MST SUN DEC 28 2014

NOTE:  "FAIR" INDICATES FEW OR NO CLOUDS BELOW 12,000 FEET
WITH NO SIGNIFICANT WEATHER AND/OR OBSTRUCTIONS TO VISIBILITY.

WYZ001-282000-
YELLOWSTONE NATIONAL PARK

CITY           SKY/WX    TMP DP  RH WIND       PRES   REMARKS
LK YELLOWSTONE   N/A     15  11  83 CALM      29.83F
W YELLOWSTONE  NOT AVBL

$$
WYZ002>013-054>058-071-098>099-282000-
NORTHERN WYOMING

CITY           SKY/WX    TMP DP  RH WIND       PRES   REMARKS
JACKSON        LGT SNOW  18  18 100 S7        29.89F VSB 1   WCI   8
CODY           CLOUDY    16  10  79 NE5       29.84S WCI   9
GREYBULL       CLOUDY    12   6  77 W5        29.93F WCI   4
WORLAND        CLOUDY     5   0  79 SW8       29.91F WCI  -8
SHERIDAN       CLOUDY    22  11  62 CALM      29.87F
BUFFALO        CLOUDY    27  16  63 N5        29.83F WCI  22
GILLETTE       PTSUNNY   24  14  65 CALM      29.85F
HULETT           N/A    N/A N/A N/A MISG        N/A
NEWCASTLE      FAIR      23  14  68 SE5       29.87F WCI  17

$$
WYZ014>020-022>026-101>103-282000-
CENTRAL WYOMING

CITY           SKY/WX    TMP DP  RH WIND       PRES   REMARKS
BIG PINEY      LGT SNOW   8   3  80 CALM      29.89F
PINEDALE       LGT SNOW  12  10  92 CALM      29.88F VSB 3/4
DUBOIS         NOT AVBL
LANDER         FAIR      15   7  70 CALM      29.82F
RIVERTON       PTSUNNY   11   3  70 N8        29.83F WCI  -1
CASPER         FAIR      25  13  60 SW16      29.85F WCI  12
DOUGLAS        FAIR      28  15  58 W9        29.82F WCI  19

$$
WYZ021-027>030-104>119-282000-
SOUTHERN WYOMING

CITY           SKY/WX    TMP DP  RH WIND       PRES   REMARKS
EVANSTON       LGT SNOW  22  18  85 W21       29.94S FOG     WCI   6
FORT BRIDGER   LGT SNOW  24  22  91 W22G29    29.94F WCI   9
ROCK SPRINGS   LGT SNOW  20  16  84 SW6       29.90F FOG     WCI  12
DIXON          SNOW      21  15  78 S16G24    29.97F VSB 1/2 WCI   7
RAWLINS        PTSUNNY   20  13  74 SW29G39   29.84F HAZE    WCI   1
SARATOGA       CLOUDY    23  12  63 CALM      29.88F
LARAMIE        FAIR      20   8  60 W14G29    29.80F WCI   7
CHEYENNE       FAIR      29  12  49 W21       29.81F WCI  16
TORRINGTON     CLOUDY    31  17  56 W9        29.87F WCI  23
PINE BLUFFS    FAIR      30  12  47 S3        29.87F

$$



USA.gov is the U.S. government's official web portal to all federal, state and local government web resources and services.